Погода в Усть-Нарыке

Россия / Кемеровская область (Кузбасс)     54°19′48″N   87°26′38″E
темп.,
°C
ветер,
м/с
пор.,
м/с
влажн.,
%
обл.,
%
осадки,
мм/ч
давл.,
гПа
погр.,
м
13 апреля, вт
вт1301:00−2ю229557 0.0 102834
04:00−2ю2593100 0.0 102793
07:00−1ю2697100 0.9 1027261
10:00+1ююз1399100 3.4 1027197
13:00+2сз1295100 3.6 1028356
16:00+3сз3584100 0.1 1029729
19:00+1зсз368254 0.1 1031389
22:00−4ююз1197100 0.0 103316
14 апреля, ср
ср1401:000юз31094100 0.2 1032489
04:000зюз41098100 0.6 1031597
07:00+1з3893100 1.8 1032693
10:00+1юз4891100 0.1 1032688
13:00+2юз5990100 0.3 1031866
16:00+1юз51397100 2.9 1028702
19:00+2юз51292100 5.5 1027894
22:00+2юз51393100 0.4 1026776
15 апреля, чт
чт1501:00+2зюз31098100 0.6 1025623
04:00+1ююз2599100 0.2 1026216
07:00+1ю2499100 0.4 1027166
10:00+1ююв2499100 0.2 1027185
13:00+2ююв2599100 0.3 1027252
16:00+2юв1599100 0.1 1026263
19:00+1юв14100100 0.4 1025185
22:00+1ююв13100100 0.5 1024101
16 апреля, пт
пт1601:00+1ююв24100100 0.9 1023118
04:00+1ююв24100100 0.1 1022119
07:00+2юв24100100 0.2 1021122
10:00+6ююв369198 0.0 1020425
13:00+9ю377888 0.0 1018704
16:00+12юз366349 0.0 10161271
19:00+10ююз257668 0.1 1015118
22:00+5юв229412 0.0 101533
17 апреля, сб
сб1701:00+3юв229875 0.0 101451
04:00+3юв1399100 0.0 1012130
07:00+3юв2497100 0.0 1010130
10:00+7ююв2481100 0.0 1008288
13:00+11ююв1367100 0.0 1006690
16:00+11ююв2468100 0.0 1005861
19:00+9ююв2586100 0.2 1005282
22:00+6с1196100 0.0 100627